TimeCST,TemperatureF,Dew PointF,Humidity,Sea Level PressureIn,VisibilityMPH,Wind Direction,Wind SpeedMPH,Gust SpeedMPH,PrecipitationIn,Events,Conditions,WindDirDegrees,DateUTC
12:55 AM,55.4,44.6,67,29.45,10.0,SW,11.5,-,N/A,,Scattered Clouds,220,2012-12-20 06:55:00
1:35 AM,55.4,37.4,51,29.46,10.0,WSW,24.2,33.4,N/A,,Clear,240,2012-12-20 07:35:00
1:55 AM,53.6,33.8,47,29.48,10.0,WSW,17.3,33.4,N/A,,Clear,250,2012-12-20 07:55:00
2:16 AM,50.0,33.8,54,29.49,10.0,West,24.2,31.1,N/A,,Clear,260,2012-12-20 08:16:00
2:35 AM,46.4,30.2,53,29.52,10.0,West,25.3,39.1,N/A,,Partly Cloudy,260,2012-12-20 08:35:00
2:55 AM,46.4,33.8,62,29.52,10.0,West,19.6,28.8,N/A,,Scattered Clouds,260,2012-12-20 08:55:00
3:15 AM,46.4,35.6,66,29.54,9.0,West,25.3,33.4,N/A,,Overcast,270,2012-12-20 09:15:00
3:35 AM,42.8,35.6,76,29.56,5.0,West,21.9,29.9,N/A,,Overcast,260,2012-12-20 09:35:00
3:55 AM,39.2,33.8,81,29.58,5.0,West,20.7,35.7,N/A,,Overcast,270,2012-12-20 09:55:00
4:15 AM,37.4,33.8,87,29.60,10.0,West,24.2,39.1,N/A,,Overcast,270,2012-12-20 10:15:00
4:35 AM,37.4,30.2,75,29.62,10.0,West,23.0,33.4,N/A,,Overcast,270,2012-12-20 10:35:00
4:55 AM,35.6,28.4,75,29.64,10.0,West,25.3,40.3,N/A,,Overcast,280,2012-12-20 10:55:00
5:15 AM,35.6,28.4,75,29.66,10.0,WNW,29.9,41.4,N/A,,Overcast,290,2012-12-20 11:15:00
5:35 AM,35.6,26.6,70,29.68,10.0,WNW,26.5,33.4,N/A,,Overcast,290,2012-12-20 11:35:00
5:55 AM,35.6,26.6,70,29.71,10.0,WNW,27.6,40.3,N/A,,Overcast,300,2012-12-20 11:55:00
6:55 AM,33.8,23.0,65,29.78,10.0,WNW,25.3,40.3,N/A,,Overcast,300,2012-12-20 12:55:00
7:15 AM,33.8,23.0,65,29.79,10.0,WNW,27.6,42.6,N/A,,Overcast,300,2012-12-20 13:15:00
7:36 AM,32.0,23.0,69,29.81,10.0,WNW,24.2,39.1,N/A,,Overcast,300,2012-12-20 13:36:00
7:55 AM,32.0,23.0,69,29.83,10.0,NW,29.9,40.3,N/A,,Overcast,310,2012-12-20 13:55:00
8:35 AM,32.0,24.8,75,29.86,10.0,WNW,27.6,38.0,N/A,,Overcast,300,2012-12-20 14:35:00
8:55 AM,32.0,26.6,80,29.88,10.0,NW,23.0,33.4,N/A,,Overcast,310,2012-12-20 14:55:00
9:15 AM,33.8,24.8,70,29.90,10.0,WNW,26.5,34.5,N/A,,Overcast,300,2012-12-20 15:15:00
9:55 AM,33.8,23.0,65,29.94,10.0,NW,28.8,39.1,N/A,,Overcast,310,2012-12-20 15:55:00
10:15 AM,32.0,21.2,64,29.96,10.0,NW,25.3,38.0,N/A,,Overcast,310,2012-12-20 16:15:00
10:35 AM,32.0,21.2,64,29.98,10.0,WNW,23.0,35.7,N/A,,Overcast,300,2012-12-20 16:35:00
10:56 AM,33.8,21.2,60,29.99,10.0,WNW,25.3,32.2,N/A,,Overcast,300,2012-12-20 16:56:00
11:15 AM,33.8,21.2,60,30.00,10.0,WNW,19.6,29.9,N/A,,Overcast,290,2012-12-20 17:15:00
11:35 AM,35.6,21.2,56,29.99,10.0,WNW,24.2,34.5,N/A,,Mostly Cloudy,290,2012-12-20 17:35:00
11:55 AM,35.6,19.4,52,30.00,10.0,NW,19.6,34.5,N/A,,Scattered Clouds,310,2012-12-20 17:55:00
12:15 PM,35.6,21.2,56,30.01,10.0,WNW,26.5,38.0,N/A,,Partly Cloudy,300,2012-12-20 18:15:00
12:35 PM,37.4,21.2,52,30.02,10.0,NW,24.2,36.8,N/A,,Partly Cloudy,310,2012-12-20 18:35:00
12:55 PM,37.4,19.4,48,30.02,10.0,WNW,20.7,36.8,N/A,,Partly Cloudy,300,2012-12-20 18:55:00
1:35 PM,37.4,19.4,48,30.04,10.0,NW,20.7,34.5,N/A,,Clear,320,2012-12-20 19:35:00
1:55 PM,37.4,19.4,48,30.05,10.0,WNW,23.0,29.9,N/A,,Clear,290,2012-12-20 19:55:00
2:15 PM,39.2,19.4,45,30.06,10.0,WNW,23.0,34.5,N/A,,Clear,300,2012-12-20 20:15:00
2:35 PM,39.2,19.4,45,30.07,10.0,NW,17.3,36.8,N/A,,Clear,310,2012-12-20 20:35:00
2:55 PM,39.2,19.4,45,30.09,10.0,WNW,17.3,27.6,N/A,,Clear,300,2012-12-20 20:55:00
3:15 PM,37.4,19.4,48,30.10,10.0,WNW,23.0,33.4,N/A,,Clear,300,2012-12-20 21:15:00
3:35 PM,37.4,17.6,45,30.11,10.0,WNW,19.6,29.9,N/A,,Clear,300,2012-12-20 21:35:00
3:55 PM,37.4,17.6,45,30.12,10.0,NW,18.4,29.9,N/A,,Clear,310,2012-12-20 21:55:00
4:15 PM,37.4,17.6,45,30.13,10.0,WNW,15.0,29.9,N/A,,Clear,300,2012-12-20 22:15:00
4:35 PM,37.4,17.6,45,30.14,10.0,WNW,24.2,33.4,N/A,,Clear,300,2012-12-20 22:35:00
4:55 PM,35.6,17.6,48,30.15,10.0,NW,18.4,29.9,N/A,,Clear,310,2012-12-20 22:55:00
5:35 PM,35.6,17.6,48,30.17,10.0,WNW,17.3,23.0,N/A,,Clear,300,2012-12-20 23:35:00
5:55 PM,33.8,17.6,52,30.18,10.0,WNW,13.8,-,N/A,,Clear,290,2012-12-20 23:55:00
6:15 PM,33.8,15.8,48,30.19,10.0,WNW,15.0,23.0,N/A,,Clear,300,2012-12-21 00:15:00
6:35 PM,33.8,15.8,48,30.20,10.0,NW,12.7,20.7,N/A,,Clear,310,2012-12-21 00:35:00
6:55 PM,33.8,15.8,48,30.21,10.0,WNW,12.7,-,N/A,,Clear,300,2012-12-21 00:55:00
7:35 PM,33.8,15.8,48,30.22,10.0,WNW,12.7,18.4,N/A,,Clear,300,2012-12-21 01:35:00
7:55 PM,32.0,14.0,48,30.22,10.0,WNW,13.8,19.6,N/A,,Clear,300,2012-12-21 01:55:00
8:15 PM,32.0,12.2,44,30.23,10.0,WNW,12.7,-,N/A,,Clear,300,2012-12-21 02:15:00
8:35 PM,32.0,12.2,44,30.24,10.0,WNW,10.4,-,N/A,,Clear,300,2012-12-21 02:35:00
8:55 PM,30.2,12.2,47,30.24,10.0,WNW,8.1,-,N/A,,Clear,300,2012-12-21 02:55:00
9:36 PM,30.2,12.2,47,30.25,10.0,WNW,9.2,-,N/A,,Clear,300,2012-12-21 03:36:00
9:55 PM,30.2,12.2,47,30.26,10.0,WNW,9.2,-,N/A,,Clear,300,2012-12-21 03:55:00
10:15 PM,30.2,12.2,47,30.26,10.0,WNW,9.2,-,N/A,,Clear,300,2012-12-21 04:15:00
10:35 PM,30.2,12.2,47,30.26,10.0,WNW,6.9,-,N/A,,Clear,300,2012-12-21 04:35:00
10:55 PM,30.2,12.2,47,30.26,10.0,NW,6.9,-,N/A,,Clear,310,2012-12-21 04:55:00
11:15 PM,30.2,12.2,47,30.27,10.0,WNW,9.2,-,N/A,,Clear,300,2012-12-21 05:15:00